Location: JKWMA (FRAC)
(33.1803°N, 84.5512°W)
Time: 20:56:53
(UTC-04:00)

OTV 5 (USA 277) - Visible Passes

Search period start: 20 October 2019 00:00
Search period end: 30 October 2019 00:00
Orbit: 310 x 324 km, 54.5° (Epoch: 17 October)

Date Brightness Start Highest point End Pass type
(mag) Time Alt. Az. Time Alt. Az. Time Alt. Az.
20 Oct ? 07:09:10 10° NW 07:11:55 87° SW 07:14:37 10° SE visible
21 Oct ? 05:52:34 15° NE 05:52:34 15° NE 05:53:50 10° E visible
22 Oct ? 06:07:29 34° E 06:07:29 34° E 06:09:21 10° ESE visible
23 Oct ? 06:22:31 23° S 06:22:31 23° S 06:23:49 10° SSE visible
25 Oct ? 19:56:38 10° S 19:58:05 18° SE 19:58:05 18° SE visible
26 Oct ? 20:10:22 10° SW 20:12:58 72° SSE 20:12:58 72° SSE visible
27 Oct ? 20:25:13 10° WSW 20:27:38 28° NW 20:27:43 28° NW visible
28 Oct ? 20:41:27 10° WNW 20:42:19 11° NW 20:42:19 11° NW visible
29 Oct ? 19:19:46 10° SW 19:22:25 53° NW 19:25:06 10° NNE visible
